Flag for U.S.A. Weather past 2 weeks in Rochester, New York, U.S.A.

Now
45 °F

Clear.


Feels Like: 43 °F
Forecast: 43 / 60 °F
Wind: 5 mph from Southwest

Location: Greater Rochester International Airport

Current Time: Apr 18, 2015 at 3:47:59 AM

Latest Report: Apr 18, 2015 at 2:54 AM


Visibility: 9 mi

Pressure: 29.99 "Hg

Humidity: 90%

Dew point: 42 °F

Location of RochesterLocation

Historic Weather in Rochester — Graph

°F

Rochester temperature yesterday

Maximum temperature yesterday: 66 °F (at 4:54 PM)
Minimum temperature yesterday: 51 °F (at 2:54 AM)
Average temperature yesterday: 56 °F

Past Weeks' High & Low Weather Summary

 TemperatureHumidityPressure
High83 °F (Apr 13, 4:54 PM)97% (Apr 9, 6:54 AM)30.44 "Hg (Apr 9, 6:54 AM)
Low32 °F (Apr 4, 10:54 PM)20% (Apr 16, 1:54 PM)29.52 "Hg (Apr 10, 11:54 AM)
Average47 °F65%30.11 "Hg
* Reported Apr 3 1:54 AM — Apr 18 1:54 AM, Rochester, Weather by CustomWeather, © 2015

Note: Actual official high and low records may vary slightly from our data, if they occured in-between our weather recording intervals... More about our weather records

Advertising

Rochester weather history for previous 24 hours

 ConditionsComfort  
Time TempWeatherWind HumidityBarometerVisibility
1:54 AM
Sat, Apr 18
49 °FClear.5 mph86%30.00 "Hg10 mi
12:54 AM49 °FClear.7 mph84%30.02 "Hg10 mi
11:54 PM
Fri, Apr 17
52 °FClear.8 mph77%30.01 "Hg10 mi
10:54 PM55 °FClear.10 mph69%30.01 "Hg10 mi
9:54 PM56 °FClear.8 mph65%30.01 "Hg10 mi
8:54 PM59 °FPassing clouds.13 mph60%30.00 "Hg10 mi
7:54 PM62 °FSunny.12 mph58%29.98 "Hg10 mi
6:54 PM65 °FScattered clouds.7 mph54%29.96 "Hg10 mi
5:54 PM64 °FScattered clouds.10 mph58%29.96 "Hg10 mi
4:54 PM66 °FScattered clouds.10 mph49%29.96 "Hg10 mi
3:54 PM65 °FScattered clouds.8 mph54%29.98 "Hg10 mi
2:54 PM63 °FBroken clouds.10 mph63%30.00 "Hg10 mi
1:54 PM58 °FOvercast.9 mph75%30.01 "Hg10 mi
1:01 PM56 °FMostly cloudy.10 mph84%30.01 "Hg8 mi
11:54 AM55 °FOvercast.6 mph87%30.03 "Hg8 mi
10:54 AM54 °FMostly cloudy.5 mph90%30.02 "Hg8 mi
9:54 AM53 °FLow clouds.8 mph93%30.03 "Hg9 mi
8:54 AM53 °FLight rain. Fog.7 mph93%30.02 "Hg5 mi
7:54 AM53 °FFog.6 mph93%30.03 "Hg2 mi
6:54 AM52 °FFog.5 mph97%30.02 "Hg2 mi
5:54 AM52 °FLight rain. Fog.3 mph93%30.01 "Hg2 mi
4:54 AM51 °FLight rain. Overcast.5 mph96%30.02 "Hg7 mi
3:54 AM51 °FLight rain. Fog.6 mph96%30.02 "Hg5 mi
Weather by CustomWeather, © 2015

See weather overviewHow to use our weather pages